Location: Breux
(46.3269°N, 3.2993°E)
Time: 22:39:02
(UTC+00:00)

Cosmos 1606 Rocket - Pass Details

Date: 09 April 2020
Orbit: 602 x 633 km, 82.5° (Epoch: 05 June)

Event Time Altitude Azimuth Distance (km) Brightness Sun altitude
Rises 19:25:37 0° 194° (SSW) 2,894 6.9 -10.5°
Reaches altitude 10° 19:27:50 10° 196° (SSW) 1,997 6.1 -10.8°
Maximum altitude 19:32:15 69° 280° (W) 678 4.0 -11.5°
Drops below altitude 10° 19:36:44 10° 4° (N) 2,026 6.5 -12.2°
Sets 19:39:00 0° 7° (N) 2,940 7.3 -12.6°
